EW4931 Weather Reports


time (UTC)temp
C
wind
direction
speed
KPH
gust
KPH
rain 1hr
cm
rain 24hr
cm
rain mn
cm
humidity
%
barometer
mb
20260505041403 8 283 12.9 20.9 0.00 0.00 0.00 70 1003.6
20260505041127 8 330 14.5 19.3 0.00 0.00 0.00 76 1003.6
20260505040403 8 303 4.8 27.4 0.00 0.00 0.00 76 1003.6
20260505040058 8 302 6.4 27.4 0.00 0.00 0.00 76 1003.5
20260505034903 8 290 11.3 22.5 0.00 0.00 0.00 76 1003.4
20260505034402 8 289 11.3 22.5 0.00 0.00 0.00 76 1003.3
20260505033904 8 307 11.3 25.7 0.00 0.00 0.00 76 1003.3
20260505033404 8 298 8.0 25.7 0.00 0.00 0.00 76 1003.2
20260505032904 8 306 11.3 27.4 0.00 0.00 0.00 76 1003.2
20260505032403 8 295 11.3 27.4 0.00 0.00 0.00 75 1003.2
20260505031904 8 300 9.7 19.3 0.00 0.00 0.00 75 1003.1
20260505031628 8 274 11.3 24.1 0.00 0.00 0.00 75 1003.1
20260505031120 8 237 17.7 24.1 0.00 0.00 0.00 75 1003.1
20260505030403 8 289 11.3 22.5 0.00 0.00 0.00 75 1003.1
20260505025903 8 281 11.3 17.7 0.00 0.00 0.00 74 1003.0
20260505025402 8 288 9.7 32.2 0.00 0.00 0.00 74 1002.9
20260505024903 8 285 17.7 32.2 0.00 0.00 0.00 73 1002.9
20260505024403 8 329 8.0 24.1 0.00 0.00 0.00 73 1002.9
20260505023902 8 252 11.3 24.1 0.00 0.00 0.00 73 1002.8
20260505023403 8 303 6.4 20.9 0.00 0.00 0.00 72 1002.8
20260505022901 8 282 9.7 19.3 0.00 0.00 0.00 72 1002.8
20260505022402 8 295 9.7 19.3 0.00 0.00 0.00 71 1002.8
20260505021902 8 290 8.0 19.3 0.00 0.00 0.00 71 1002.8
20260505021401 8 279 14.5 19.3 0.00 0.00 0.00 70 1002.8
20260505021124 8 274 11.3 19.3 0.00 0.00 0.00 70 1002.7
20260505020402 8 261 12.9 20.9 0.00 0.00 0.00 69 1002.7
20260505015902 8 276 9.7 20.9 0.00 0.00 0.00 69 1002.6
20260505015402 8 330 9.7 19.3 0.00 0.00 0.00 68 1002.6
20260505014902 8 282 8.0 24.1 0.00 0.00 0.00 68 1002.5
20260505014622 8 265 11.3 27.4 0.00 0.00 0.00 67 1002.6
20260505013901 8 274 12.9 27.4 0.00 0.00 0.00 67 1002.6
20260505013402 8 268 9.7 20.9 0.00 0.00 0.00 66 1002.6
20260505012902 8 231 8.0 19.3 0.00 0.00 0.00 66 1002.5
20260505012402 8 295 8.0 20.9 0.00 0.00 0.00 65 1002.5
20260505011902 8 307 11.3 20.9 0.00 0.00 0.00 65 1002.6
20260505011402 8 295 6.4 20.9 0.00 0.00 0.00 64 1002.5
20260505010902 8 281 6.4 20.9 0.00 0.00 0.00 63 1002.5
20260505010401 8 279 11.3 20.9 0.00 0.00 0.00 63 1002.4
20260505005901 8 285 11.3 20.9 0.00 0.00 0.00 63 1002.5
20260505005402 8 295 6.4 20.9 0.00 0.00 0.00 63 1002.5
20260505004902 8 266 3.2 20.9 0.00 0.00 0.00 62 1002.4
20260505004621 8 269 8.0 17.7 0.00 0.00 0.00 62 1002.5
20260505003904 8 299 9.7 19.3 0.00 0.00 0.00 61 1002.5
20260505003403 8 257 8.0 19.3 0.00 0.00 0.00 61 1002.4
20260505002902 8 278 6.4 20.9 0.00 0.00 0.00 60 1002.5
20260505002402 8 252 12.9 20.9 0.00 0.00 0.00 60 1002.5
20260505001902 8 288 6.4 20.9 0.00 0.00 0.00 60 1002.5
20260505001402 8 272 8.0 14.5 0.00 0.00 0.00 60 1002.4
20260505000903 8 248 6.4 19.3 0.00 0.00 0.00 60 1002.4
20260505000623 8 269 4.8 19.3 0.00 0.00 0.00 59 1002.4
20260504235903 8 279 4.8 16.1 0.00 0.00 0.00 60 1002.5
20260504235403 8 288 9.7 19.3 0.00 0.00 0.00 59 1002.5
20260504234903 8 252 11.3 19.3 0.00 0.00 0.00 60 1002.5
20260504234402 8 257 6.4 19.3 0.00 0.00 0.00 59 1002.6
20260504234136 8 268 6.4 16.1 0.00 0.00 0.00 59 1002.6
20260504233404 8 271 6.4 16.1 0.00 0.00 0.00 60 1002.6
20260504232903 8 278 6.4 14.5 0.00 0.00 0.00 59 1002.5
20260504232403 8 290 6.4 16.1 0.00 0.00 0.00 59 1002.6
20260504231903 8 257 8.0 16.1 0.00 0.00 0.00 60 1002.7
20260504231840 8 240 6.4 11.3 0.00 0.00 0.00 61 1002.7
20260504230902 8 238 4.8 11.3 0.00 0.00 0.00 62 1002.7
20260504230403 8 252 6.4 9.7 0.00 0.00 0.00 62 1002.7
20260504225904 8 254 4.8 9.7 0.00 0.00 0.00 63 1002.7
20260504225404 8 251 6.4 9.7 0.00 0.00 0.00 63 1002.7
20260504224903 8 276 4.8 9.7 0.00 0.00 0.00 62 1002.8
20260504224843 8 241 3.2 6.4 0.00 0.00 0.00 62 1002.8
20260504223903 9 255 4.8 6.4 0.00 0.00 0.00 60 1002.9
20260504223403 9 254 3.2 6.4 0.00 0.00 0.00 59 1003.0
20260504222902 9 243 4.8 8.0 0.00 0.00 0.00 59 1003.0
20260504222403 9 251 4.8 9.7 0.00 0.00 0.00 59 1003.1
20260504222122 9 285 3.2 9.7 0.00 0.00 0.00 58 1003.0
20260504221403 10 262 6.4 9.7 0.00 0.00 0.00 58 1003.1
20260504220903 10 269 6.4 16.1 0.00 0.00 0.00 58 1003.1
20260504220403 10 241 6.4 16.1 0.00 0.00 0.00 59 1003.1
20260504220122 10 265 6.4 9.7 0.00 0.00 0.00 58 1003.2
20260504215402 9 266 6.4 11.3 0.00 0.00 0.00 60 1003.2
20260504215131 9 257 8.0 11.3 0.00 0.00 0.00 60 1003.2
20260504214402 9 259 4.8 8.0 0.00 0.00 0.00 60 1003.2
20260504213902 10 266 6.4 8.0 0.00 0.00 0.00 60 1003.2
20260504213402 10 261 4.8 8.0 0.00 0.00 0.00 60 1003.2
20260504212903 10 252 3.2 11.3 0.00 0.00 0.00 60 1003.3
20260504212402 10 248 4.8 11.3 0.00 0.00 0.00 60 1003.2
20260504211902 10 306 4.8 9.7 0.00 0.00 0.00 60 1003.3
20260504211403 10 265 3.2 9.7 0.00 0.00 0.00 60 1003.3
20260504210903 10 279 3.2 8.0 0.00 0.00 0.00 59 1003.4
20260504210402 10 266 4.8 6.4 0.00 0.00 0.00 60 1003.3
20260504210128 10 285 3.2 8.0 0.00 0.00 0.00 60 1003.3
20260504205402 10 281 4.8 17.7 0.00 0.00 0.00 60 1003.4
20260504204902 10 259 8.0 17.7 0.00 0.00 0.00 61 1003.3
20260504204402 10 283 4.8 11.3 0.00 0.00 0.00 62 1003.3
20260504204344 10 283 4.8 11.3 0.00 0.00 0.00 63 1003.3
20260504203844 10 230 4.8 11.3 0.00 0.00 0.00 64 1003.3
20260504202902 10 269 3.2 8.0 0.00 0.00 0.00 64 1003.3
20260504202402 10 266 4.8 8.0 0.00 0.00 0.00 64 1003.3
20260504201904 10 261 3.2 8.0 0.00 0.00 0.00 64 1003.3
20260504201404 10 309 4.8 8.0 0.00 0.00 0.00 64 1003.2
20260504200903 10 248 4.8 8.0 0.00 0.00 0.00 65 1003.3
20260504200852 10 303 3.2 8.0 0.00 0.00 0.00 65 1003.2
20260504195902 10 257 4.8 8.0 0.00 0.00 0.00 64 1003.3
20260504195403 11 265 3.2 6.4 0.00 0.00 0.00 64 1003.2
20260504194903 11 259 3.2 6.4 0.00 0.00 0.00 64 1003.2
20260504194405 11 248 3.2 6.4 0.00 0.00 0.00 65 1003.2
20260504193905 11 275 3.2 6.4 0.00 0.00 0.00 64 1003.1
20260504193403 11 265 3.2 6.4 0.00 0.00 0.00 64 1003.1
20260504192904 11 254 1.6 9.7 0.00 0.00 0.00 64 1003.2
20260504192404 11 261 3.2 9.7 0.00 0.00 0.00 64 1003.1
20260504191903 11 268 3.2 6.4 0.00 0.00 0.00 64 1003.1
20260504191405 11 272 3.2 4.8 0.00 0.00 0.00 64 1003.0
20260504190904 11 305 3.2 9.7 0.00 0.00 0.00 63 1003.0
20260504190405 12 281 6.4 9.7 0.00 0.00 0.00 63 1003.1
20260504185904 12 274 4.8 8.0 0.00 0.00 0.00 63 1003.1
20260504185403 12 269 3.2 9.7 0.00 0.00 0.00 63 1003.1
20260504185133 12 266 6.4 9.7 0.00 0.00 0.00 63 1003.1
20260504184404 12 276 3.2 9.7 0.00 0.00 0.00 64 1003.0
20260504183904 12 286 3.2 9.7 0.00 0.00 0.00 63 1003.1
20260504183403 12 298 3.2 11.3 0.00 0.00 0.00 63 1003.1
20260504183129 12 275 8.0 11.3 0.00 0.00 0.00 63 1003.1
20260504182403 12 276 4.8 11.3 0.00 0.00 0.00 62 1003.0
20260504181903 12 285 4.8 11.3 0.00 0.00 0.00 62 1003.1
20260504181403 12 296 6.4 8.0 0.00 0.00 0.00 62 1003.0
20260504180903 12 274 4.8 16.1 0.00 0.00 0.00 62 1003.0
20260504180403 13 296 8.0 16.1 0.00 0.00 0.00 61 1003.0
20260504180123 13 303 6.4 14.5 0.00 0.00 0.00 62 1002.9
20260504175403 12 319 9.7 16.1 0.00 0.00 0.00 62 1002.9
20260504174903 12 300 6.4 16.1 0.00 0.00 0.00 61 1002.9
20260504174403 13 296 6.4 17.7 0.00 0.00 0.00 61 1002.9
20260504173904 13 285 8.0 20.9 0.00 0.00 0.00 60 1002.8
20260504173403 13 288 9.7 20.9 0.00 0.00 0.00 59 1002.8
20260504172903 13 275 8.0 16.1 0.00 0.00 0.00 59 1002.8
20260504172403 13 303 11.3 20.9 0.00 0.00 0.00 58 1002.8
20260504171903 13 310 9.7 25.7 0.00 0.00 0.00 57 1002.8
20260504171403 13 289 17.7 25.7 0.00 0.00 0.00 58 1002.7
20260504170904 13 298 11.3 24.1 0.00 0.00 0.00 57 1002.7
20260504170403 13 258 11.3 25.7 0.00 0.00 0.00 56 1002.7
20260504160404 15 238 8.0 19.3 0.00 0.00 0.00 65 1002.0
20260504150903 14 195 6.4 16.1 0.00 0.00 0.00 74 1001.6
20260504150403 14 248 8.0 17.7 0.00 0.00 0.00 74 1001.6
20260504140903 13 202 9.7 16.1 0.00 0.00 0.00 75 1001.9
20260504140621 13 265 8.0 16.1 0.00 0.00 0.00 76 1001.9
20260504130403 13 183 11.3 16.1 0.00 0.00 0.00 79 1002.3
20260504110403 11 269 6.4 14.5 0.00 0.00 0.00 85 1003.1
20260504110128 11 266 9.7 14.5 0.00 0.00 0.00 86 1003.1
20260504100403 10 265 3.2 8.0 0.00 0.00 0.00 90 1003.2
20260504081403 7 180 3.2 4.8 0.00 0.00 0.00 93 1003.4
20260504080903 6 164 3.2 6.4 0.00 0.00 0.00 93 1003.4
20260504080403 6 179 3.2 6.4 0.00 0.00 0.00 93 1003.4
20260504050404 4 182 3.2 4.8 0.00 0.00 0.00 89 1004.9
20260504050124 4 188 1.6 6.4 0.00 0.00 0.00 89 1005.0
20260504045403 4 199 1.6 6.4 0.00 0.00 0.00 89 1005.0
20260504044903 4 203 3.2 6.4 0.00 0.00 0.00 88 1005.1
20260504044404 4 185 3.2 6.4 0.00 0.00 0.00 88 1005.1
20260504043904 4 164 3.2 6.4 0.00 0.00 0.00 87 1005.1